"Pseudo-MPEC" for C14XRU2

Created 2019 Oct 10 20:07:09 UT using Find_Orb

Click here for an explanation of pseudo-MPECs

 
 Astrometry: 
     C14XRU2  C2019 10 08.37306 03 05 20.37 +20 50 18.5    ~A89b 20.8 GVNEOCPG96
     C14XRU2  C2019 10 08.37820 03 05 20.90 +20 50 57.6    ~A89b 21.6 GVNEOCPG96
     C14XRU2  C2019 10 08.38334 03 05 21.39 +20 51 36.9    ~A89b 21.0 GVNEOCPG96
     C14XRU2  C2019 10 08.42037403 05 24.84 +20 56 18.1    ~A8Aq 21.2 GVNEOCPH01
     C14XRU2  C2019 10 08.42745403 05 25.53 +20 57 12.3    ~A8Aq 20.9 GVNEOCPH01
     C14XRU2  C2019 10 08.43493803 05 26.28 +20 58 09.2    ~A8Aq 21.2 GVNEOCPH01
     C14XRU2  C2019 10 08.44209803 05 26.98 +20 59 03.9    ~A8Aq 21.0 GVNEOCPH01
     C14XRU2 KC2019 10 09=sE0Astrometry6x\m[iQredacted;KS\click$herebEMsU*1:lH21
     C14XRU2 KC2019 10 09!7TdT=OJ-'BitWX%(efor;`explanationMa3Fp,*[Fw6^QT`KQdH21
     C14XRU2  C2019 10 10.43222 03 09 26.52 +25 26 08.4    ~AAB7       VNEOCPI52
     C14XRU2  C2019 10 10.43654 03 09 27.01 +25 26 44.8    ~AAB7       VNEOCPI52
     C14XRU2  C2019 10 10.44086 03 09 27.48 +25 27 21.5    ~AAB7 22.1 GVNEOCPI52
     C14XRU2  C2019 10 10.44517 03 09 27.93 +25 27 57.6    ~AAB7 21.1 GVNEOCPI52

Station data:
(G96) Mt. Lemmon Survey  (N32.442754 W110.788720)  US/Arizona.  Observers T.
   A. Pruyne, B. M. Africano, E. J. Christensen, G. A. Farneth, D. C. Fuls,
   A. R. Gibbs, A. D. Grauer, H. Groeller, J. A. Johnson, R. A. Kowalski, S.
   M. Larson, G. J. Leonard, D. Rankin, R. L. Seaman, F. C. Shelly. 1.5-m
   reflector + 10K CCD.
(H01) Magdalena Ridge Observatory, Socorro  (N33.984833 W107.189333)  US/New
   Mexico.  Observers W. H. Ryan, E. V. Ryan. Measurer W. H. Ryan. 2.4-m
   f/8.9 reflector + CCD.
(H21) Astronomical Research Observatory, Westfield  (N39.483057 W87.968270)
   US/Illinois. 0.76-m f/3.0 astrograph + CCD.
(I52) Steward Observatory, Mt. Lemmon Station  (N32.442547 W110.788920)
   US/Arizona.  Observers T. A. Pruyne, B. M. Africano, E. J. Christensen, G.
   A. Farneth, D. C. Fuls, A. R. Gibbs, A. D. Grauer, H. Groeller, J. A.
   Johnson, R. A. Kowalski, S. M. Larson, G. J. Leonard, D. Rankin, R. L.
   Seaman, F. C. Shelly. 1.0-m reflector + CCD.

Orbital elements:  C14XRU2
   Perihelion 2019 Nov 23.322910 +/- 0.172 TT =  7:44:59 (JD 2458810.822910)
Epoch 2019 Oct 10.0 TT = JDT 2458766.5   Earth MOID: 0.1406   AutoNEOCP
M 346.11408277 +/- 0.38             (J2000 ecliptic)
n   0.31328983 +/- 0.00762          Peri.   50.62257 +/- 0.15
a   2.14703198 +/- 0.0348           Node    18.63694 +/- 0.047
e   0.5202607 +/- 0.00736           Incl.   20.25308 +/- 0.17
P   3.15                   H 23.5   G  0.15   U  9.5  
q 1.03001560 +/- 0.000969    Q 3.26404836 +/- 0.0699
From 13 observations 2019 Oct. 8-10; mean residual 0".14
Residuals in arcseconds: 
191008 G96  .12-  .17+    191008 H01  .01+  .14-    191010 I52  .16+  .13-    
191008 G96  .29+  .01+    191008 H01  .11-  .04-    191010 I52  .14+  .22+    
191008 G96  .13+  .05+    191009 H21  .23-  .11+    191010 I52  .15-  .07+    
191008 H01  .04-  .16-    191009 H21  .13+  .06-    
191008 H01  .14-  .04+    191010 I52  .09-  .18-    

Ephemerides (geocentric):
Date (UTC) HH   RA              Dec         delta   r     elong  mag " sig PA
---- -- -- --  -------------   -----------  ------ ------ -----  --- ---- ---
2019 10 10 20  03 10 18.669   +26 23 12.78  .18665 1.1544 143.8 21.4 .069  15
2019 10 10 21  03 10 24.069   +26 29 11.44  .18646 1.1542 143.7 21.4 .067  10
2019 10 10 22  03 10 29.482   +26 35 10.76  .18627 1.1539 143.7 21.4 .066   6
2019 10 10 23  03 10 34.908   +26 41 10.76  .18608 1.1537 143.7 21.4 .065   0
2019 10 11 00  03 10 40.347   +26 47 11.44  .18589 1.1535 143.7 21.4 .064 175
2019 10 11 01  03 10 45.800   +26 53 12.78  .18570 1.1533 143.6 21.4 .064 169
2019 10 11 02  03 10 51.265   +26 59 14.79  .18551 1.1531 143.6 21.4 .065 163
2019 10 11 03  03 10 56.743   +27 05 17.48  .18532 1.1529 143.6 21.4 .067 157
2019 10 11 04  03 11 02.235   +27 11 20.83  .18513 1.1526 143.6 21.4 .069 152
2019 10 11 05  03 11 07.740   +27 17 24.85  .18494 1.1524 143.5 21.4 .072 146
2019 10 11 06  03 11 13.259   +27 23 29.54  .18476 1.1522 143.5 21.4 .076 141
2019 10 11 07  03 11 18.791   +27 29 34.89  .18457 1.1520 143.5 21.4 .080 137
2019 10 11 08  03 11 24.337   +27 35 40.91  .18439 1.1518 143.5 21.4 .085 133
2019 10 11 09  03 11 29.897   +27 41 47.60  .18420 1.1516 143.4 21.4 .091 129
2019 10 11 10  03 11 35.470   +27 47 54.94  .18402 1.1514 143.4 21.4 .097 125
2019 10 11 11  03 11 41.057   +27 54 02.95  .18383 1.1511 143.4 21.4 .104 122
2019 10 11 12  03 11 46.658   +28 00 11.62  .18365 1.1509 143.3 21.4 .111 120
2019 10 11 13  03 11 52.274   +28 06 20.95  .18347 1.1507 143.3 21.4 .118 117
2019 10 11 14  03 11 57.903   +28 12 30.94  .18329 1.1505 143.3 21.4 .126 115
2019 10 11 15  03 12 03.546   +28 18 41.58  .18311 1.1503 143.3 21.4 .134 113
2019 10 11 16  03 12 09.204   +28 24 52.88  .18293 1.1501 143.2 21.4 .142 111
2019 10 11 17  03 12 14.876   +28 31 04.84  .18275 1.1498 143.2 21.4 .151 109
2019 10 11 18  03 12 20.563   +28 37 17.45  .18257 1.1496 143.2 21.4 .160 108
2019 10 11 19  03 12 26.264   +28 43 30.72  .18240 1.1494 143.1 21.4 .170 107
2019 10 11 20  03 12 31.980   +28 49 44.63  .18222 1.1492 143.1 21.4 .179 105
2019 10 11 21  03 12 37.711   +28 55 59.20  .18204 1.1490 143.1 21.4 .189 104
2019 10 11 22  03 12 43.456   +29 02 14.41  .18187 1.1488 143.0 21.4 .199 103
2019 10 11 23  03 12 49.216   +29 08 30.27  .18169 1.1486 143.0 21.4 .210 102
2019 10 12 00  03 12 54.992   +29 14 46.78  .18152 1.1484 143.0 21.4 .220 102
2019 10 12 01  03 13 00.782   +29 21 03.94  .18135 1.1481 142.9 21.4 .231 101
2019 10 12 02  03 13 06.587   +29 27 21.73  .18117 1.1479 142.9 21.4 .242 100
2019 10 12 03  03 13 12.408   +29 33 40.17  .18100 1.1477 142.9 21.4 .254  99
2019 10 12 04  03 13 18.244   +29 39 59.25  .18083 1.1475 142.8 21.4 .265  99
2019 10 12 05  03 13 24.096   +29 46 18.97  .18066 1.1473 142.8 21.4 .277  98
2019 10 12 06  03 13 29.963   +29 52 39.33  .18049 1.1471 142.8 21.4 .289  98
2019 10 12 07  03 13 35.846   +29 59 00.32  .18032 1.1469 142.7 21.4 .301  97
2019 10 12 08  03 13 41.744   +30 05 21.95  .18015 1.1467 142.7 21.4 .314  97
2019 10 12 09  03 13 47.659   +30 11 44.21  .17999 1.1464 142.7 21.4 .326  96
2019 10 12 10  03 13 53.589   +30 18 07.10  .17982 1.1462 142.6 21.4 .339  96
2019 10 12 11  03 13 59.535   +30 24 30.62  .17965 1.1460 142.6 21.4 .353  95
2019 10 12 12  03 14 05.498   +30 30 54.77  .17949 1.1458 142.6 21.4 .366  95
2019 10 12 13  03 14 11.476   +30 37 19.55  .17932 1.1456 142.5 21.4 .379  95
2019 10 12 14  03 14 17.471   +30 43 44.95  .17916 1.1454 142.5 21.4 .393  94
2019 10 12 15  03 14 23.483   +30 50 10.98  .17900 1.1452 142.5 21.4 .407  94
2019 10 12 16  03 14 29.510   +30 56 37.62  .17883 1.1450 142.4 21.4 .421  94
2019 10 12 17  03 14 35.555   +31 03 04.89  .17867 1.1448 142.4 21.4 .436  94
2019 10 12 18  03 14 41.616   +31 09 32.77  .17851 1.1445 142.3 21.4 .450  93
2019 10 12 19  03 14 47.694   +31 16 01.27  .17835 1.1443 142.3 21.4 .465  93